DW1970 Weather Reports


Display with metric or nautical units.
time (UTC)temp
F
wind
direction
speed
MPH
gust
MPH
rain 1hr
in
rain 24hr
in
rain mn
in
humidity
%
barometer
mb
20260904174513 60 331 0.0 2.0 0.00 0.02 0.01 91 1014.9
20260904173008 59 281 0.0 1.0 0.00 0.02 0.01 93 1014.9
20260904171508 59 341 0.0 1.0 0.00 0.02 0.01 93 1014.8
20260904170002 59 323 0.0 0.0 0.00 0.02 0.01 95 1014.6
20260904164605 58 325 0.0 0.0 0.00 0.04 0.01 96 1014.6
20260904163106 57 354 0.0 1.0 0.00 0.04 0.01 96 1014.5
20260904161601 57 5 0.0 0.0 0.00 0.04 0.01 97 1014.4
20260904160058 57 13 0.0 2.0 0.00 0.04 0.01 97 1014.4
20260904154558 57 22 0.0 0.0 0.00 0.04 0.01 97 1014.4
20260904153105 56 112 0.0 0.0 0.00 0.04 0.01 97 1014.5
20260904151555 56 112 0.0 0.0 0.00 0.04 0.01 98 1014.4
20260904150053 55 112 0.0 0.0 0.00 0.04 0.01 97 1014.1
20260904144550 55 112 0.0 0.0 0.00 0.06 0.01 98 1013.8
20260904143049 53 112 0.0 0.0 0.01 0.06 0.01 97 1013.6
20260904141608 53 112 0.0 0.0 0.01 0.06 0.01 97 1013.6
20260904140047 53 110 0.0 0.0 0.01 0.06 0.01 97 1013.4
20260904134546 53 110 0.0 0.0 0.01 0.07 0.01 97 1013.3
20260904133044 53 107 0.0 0.0 0.00 0.06 0.00 97 1013.1
20260904131601 53 106 0.0 0.0 0.00 0.06 0.00 97 1013.0
20260904130040 53 106 0.0 0.0 0.00 0.06 0.00 97 1012.8
20260904124543 53 106 0.0 0.0 0.00 0.07 0.00 97 1012.8
20260904123049 54 92 0.0 1.0 0.00 0.07 0.00 97 1012.7
20260904121536 54 31 0.0 0.0 0.00 0.07 0.00 97 1012.6
20260904120035 54 31 0.0 0.0 0.00 0.07 0.00 98 1012.6
20260904114542 55 31 0.0 0.0 0.00 0.07 0.00 97 1012.6
20260904113034 55 31 0.0 0.0 0.00 0.07 0.00 98 1012.5
20260904111534 55 31 0.0 0.0 0.00 0.07 0.00 98 1012.7
20260904110022 55 31 0.0 0.0 0.00 0.07 0.00 97 1012.6
20260904104530 55 31 0.0 0.0 0.00 0.07 0.00 98 1012.7
20260904103031 56 22 0.0 0.0 0.00 0.07 0.00 98 1012.7
20260904101528 56 21 0.0 0.0 0.00 0.07 0.00 98 1012.6
20260904100028 56 25 0.0 0.0 0.00 0.07 0.00 98 1012.8
20260904094527 55 25 0.0 0.0 0.00 0.07 0.00 97 1012.6
20260904093027 55 25 0.0 0.0 0.00 0.07 0.00 97 1012.5
20260904091530 55 94 0.0 0.0 0.00 0.07 0.00 97 1012.3
20260904090026 55 73 0.0 0.0 0.00 0.07 0.00 97 1012.5
20260904084524 56 71 0.0 0.0 0.00 0.07 0.00 98 1012.5
20260904083023 55 71 0.0 0.0 0.00 0.07 0.00 97 1012.5
20260904081521 55 16 0.0 0.0 0.00 0.07 0.00 97 1012.6
20260904080020 56 16 0.0 0.0 0.00 0.07 0.00 97 1012.3
20260904074521 57 16 0.0 0.0 0.00 0.07 0.00 97 1012.2
20260904073019 57 15 0.0 0.0 0.00 0.07 0.00 97 1012.2
20260904071529 58 15 0.0 0.0 0.00 0.07 0.00 97 1012.3
20260904070013 58 2 0.0 0.0 0.00 0.07 0.00 97 1012.3
20260904064509 59 338 0.0 0.0 0.00 0.07 0.07 98 1012.4
20260904063009 59 356 0.0 0.0 0.00 0.07 0.07 98 1012.4
20260904061508 59 346 0.0 2.0 0.00 0.07 0.07 97 1012.2
20260904060008 59 6 0.0 0.0 0.00 0.07 0.07 97 1012.3
20260904054507 59 330 0.0 0.0 0.00 0.07 0.07 98 1012.4
20260904053005 59 343 0.0 0.0 0.00 0.07 0.07 97 1012.6
20260904051505 60 358 0.0 0.0 0.00 0.07 0.07 97 1012.6
20260904050004 60 213 0.0 0.0 0.00 0.07 0.07 97 1012.6
20260904044505 60 213 0.0 0.0 0.00 0.07 0.07 97 1012.7
20260904043004 60 212 0.0 0.0 0.00 0.07 0.07 97 1012.5
20260904041502 60 210 0.0 0.0 0.01 0.07 0.07 97 1012.4
20260904040005 60 210 0.0 0.0 0.01 0.07 0.07 97 1012.4
20260904034502 60 210 0.0 0.0 0.01 0.07 0.07 97 1012.4
20260904033001 60 210 0.0 0.0 0.01 0.07 0.07 97 1012.3
20260904031501 59 210 0.0 0.0 0.00 0.06 0.06 97 1012.1
20260904030100 60 346 0.0 0.0 0.00 0.06 0.06 97 1012.1
20260904024603 60 246 0.0 0.0 0.00 0.06 0.06 97 1012.2
20260904023107 59 245 0.0 0.0 0.00 0.06 0.06 97 1012.2
20260904021600 59 277 0.0 0.0 0.00 0.06 0.06 97 1012.3
20260904020057 59 221 0.0 0.0 0.00 0.06 0.06 97 1012.3
20260904014556 60 221 0.0 1.0 0.00 0.06 0.06 97 1012.4
20260904013056 59 221 0.0 2.0 0.00 0.06 0.06 97 1012.4
20260904011554 59 255 0.0 0.0 0.00 0.06 0.06 97 1012.5
20260904010058 60 256 0.0 0.0 0.00 0.06 0.06 97 1012.5
20260904004559 60 195 0.0 0.0 0.00 0.06 0.06 97 1012.5
20260904003051 60 246 0.0 0.0 0.00 0.06 0.06 97 1012.6
20260904001550 60 272 0.0 0.0 0.00 0.06 0.06 97 1012.7
20260904000118 61 299 0.0 1.0 0.00 0.06 0.06 98 1012.7
20260903234548 61 312 0.0 0.0 0.00 0.06 0.06 98 1012.9
20260903233047 61 325 0.0 0.0 0.00 0.06 0.06 98 1013.0
20260903231546 61 325 0.0 0.0 0.00 0.06 0.06 97 1013.1
20260903230048 61 326 0.0 0.0 0.00 0.06 0.06 98 1013.2
20260903224545 61 311 0.0 0.0 0.00 0.06 0.06 98 1013.3
20260903223044 61 341 0.0 0.0 0.00 0.06 0.06 98 1013.4
20260903221542 61 335 0.0 0.0 0.00 0.06 0.06 98 1013.5
20260903220048 62 336 0.0 0.0 0.00 0.06 0.06 98 1013.6
20260903214542 62 342 0.0 0.0 0.00 0.06 0.06 98 1013.6
20260903213041 62 316 0.0 1.0 0.00 0.06 0.06 98 1013.7
20260903211609 61 340 0.0 3.0 0.00 0.06 0.06 98 1013.5
20260903210038 61 340 0.0 0.0 0.00 0.06 0.06 98 1013.7
20260903204539 61 324 0.0 0.0 0.00 0.06 0.06 98 1013.8
20260903203037 62 339 0.0 0.0 0.00 0.06 0.06 98 1013.8
20260903201535 62 309 0.0 1.0 0.00 0.06 0.06 98 1013.8
20260903200035 61 308 0.0 2.0 0.00 0.06 0.06 98 1014.0
20260903194534 61 327 0.0 0.0 0.00 0.06 0.06 98 1014.2
20260903193034 61 298 0.0 0.0 0.00 0.06 0.06 98 1014.3
20260903191533 62 333 0.0 0.0 0.00 0.06 0.06 98 1014.4
20260903190033 62 308 0.0 1.0 0.00 0.06 0.06 98 1014.6
20260903184532 61 320 0.0 1.0 0.00 0.06 0.06 98 1014.7
20260903183031 61 333 0.0 2.0 0.00 0.06 0.06 98 1014.8
20260903181532 61 308 0.0 0.0 0.00 0.06 0.06 98 1014.8
20260903180030 61 298 0.0 1.0 0.00 0.06 0.06 98 1014.5